Regional Weather Roundup
Issued by NWS Cleveland, OH

Home | Current Version | Previous Version | Text Only | Print | Product List | Glossary Off
Versions: 1 2 3 4 5 6 7 8 9 10 11 12 13 14 15 16 17 18 19 20 21 22 23 24 25 26 27 28 29 30 31 32 33 34 35 36 37 38 39 40 41 42 43 44 45 46 47 48 49 50

000
ASUS41 KCLE 230610
RWRCLE
OHIO REGIONAL WEATHER ROUNDUP
NATIONAL WEATHER SERVICE CLEVELAND, OH
200 AM EDT SAT MAY 23 2015

NOTE: "FAIR" INDICATES FEW OR NO CLOUDS BELOW 12,000 FEET WITH NO
SIGNIFICANT WEATHER AND/OR OBSTRUCTIONS TO VISIBILITY.

OHZ001>008-015>018-024>027-034-035-043-044-230700-
   NORTHWEST OHIO

CITY           SKY/WX    TMP DP  RH WIND       PRES   REMARKS
DEFIANCE       MOCLDY    52  37  56 CALM      30.31F
FINDLAY        PTCLDY    54  35  48 CALM      30.30S
TOLEDO EXPRESS PTCLDY    46  39  76 CALM      30.31S
TOLEDO EXEC    MOCLDY    50  37  61 NE3       30.33R
LIMA           PTCLDY    52  35  52 CALM      30.30S
$$

OHZ009>014-019>023-028>033-038-089-230700-
   NORTHEAST OHIO

CITY           SKY/WX    TMP DP  RH WIND       PRES   REMARKS
CLE-HOPKINS    MOCLDY    46  29  51 S3        30.35R
CLE-LAKEFRONT  PTCLDY    49  29  46 CALM      30.32S
CUY CO. ARPT   NOT AVBL
LORAIN-ELYRIA  PTCLDY    45  35  68 CALM      30.33R
ASHTABULA      PTCLDY    36  34  92 CALM      30.35F
AKRON-CANTON   MOCLDY    46  29  51 S3        30.33R
WOOSTER        PTCLDY    41  34  76 CALM      30.34R
MANSFIELD      PTCLDY    45  35  68 S5        30.32S
YOUNGSTOWN     PTCLDY    34  31  88 E6        30.32F WCI  29
$$

OHZ042-051>053-060>062-070>072-077>081-230700-
  SOUTHWEST OHIO

CITY           SKY/WX    TMP DP  RH WIND       PRES   REMARKS
CINC-COVINGTON CLEAR     52  47  83 CALM      30.29S
CINC-LUNKEN    CLEAR     50  48  93 CALM      30.30S
HAMILTON       CLEAR     48  46  93 CALM      30.31R
DAYTON         PTCLDY    53  39  59 E6        30.31S
WRIGHT-PAT AFB CLEAR     49  44  85 CALM      30.30S
DAYTON GENERAL CLEAR     53  45  74 NE3       30.29S
WILMINGTON     CLEAR     54  39  57 NE6       30.30S
$$

OHZ036-037-039>041-045>050-054>059-063>069-073>076-082>088-230700-
  CENTRAL AND SOUTHEAST OHIO

CITY           SKY/WX    TMP DP  RH WIND       PRES   REMARKS
COLUMBUS       PTCLDY    53  34  48 SE3       30.31S
OSU AIRPORT    PTCLDY    51  35  54 CALM      30.31S
BOLTON FIELD   NOT AVBL
RICKENBACK AFB CLEAR     51  37  60 E3        30.31S
NEWARK         CLEAR     46  40  79 CALM      30.32S
MARION         PTCLDY    48  34  58 S7        30.32S
LANCASTER      CLEAR     50  37  61 E5        30.32S
ZANESVILLE     CLEAR     46  37  71 CALM      30.32S
NEW PHILLY     PTCLDY    45  38  76 CALM      30.34S
$$


USA.gov is the U.S. government's official web portal to all federal, state and local government web resources and services.